DW8090 Weather Reports


time (UTC)temp
F
wind
direction
speed
knots
gust
knots
rain 1hr
in
rain 24hr
in
rain mn
in
humidity
%
barometer
mb
20240723053005 62 114 0.0 0.0 0.00 0.00 0.00 92 1020.4
20240723051005 62 135 0.0 0.0 0.00 0.00 0.00 92 1020.2
20240723043005 61 135 0.0 0.0 0.00 0.00 0.00 92 1020.1
20240723040003 62 135 0.0 0.0 0.00 0.01 0.00 91 1020.0
20240723034004 62 135 0.0 0.0 0.00 0.01 0.00 91 1020.1
20240723030004 62 0 0.0 0.0 0.00 0.01 0.00 90 1020.1
20240723021004 62 135 0.0 0.0 0.00 0.01 0.00 90 1020.1
20240723020004 62 135 0.0 0.0 0.00 0.01 0.00 89 1020.1
20240723014004 62 0 0.0 0.0 0.00 0.01 0.00 90 1020.2
20240723013005 62 0 0.0 0.0 0.00 0.01 0.00 89 1020.3
20240723011005 62 0 0.0 0.0 0.00 0.01 0.00 89 1020.4
20240723010007 62 0 0.0 0.0 0.00 0.01 0.00 89 1020.4
20240723004004 61 180 0.0 0.0 0.00 0.01 0.00 87 1020.6
20240723003005 62 180 0.0 0.0 0.00 0.01 0.00 86 1020.6
20240723001005 62 270 0.0 0.0 0.00 0.01 0.00 85 1020.6
20240723000004 62 0 0.0 0.0 0.00 0.01 0.00 85 1020.5
20240722234005 62 0 0.0 0.0 0.00 0.01 0.00 86 1020.7
20240722231004 62 323 0.0 0.0 0.00 0.02 0.00 86 1020.7
20240722224004 62 225 0.0 0.0 0.00 0.06 0.00 85 1020.6
20240722213004 62 270 0.0 0.0 0.00 0.06 0.02 81 1020.6
20240722211009 63 270 0.0 0.9 0.00 0.09 0.02 79 1020.5
20240722201005 65 225 0.0 0.9 0.00 0.09 0.02 76 1020.5
20240722200004 66 225 0.0 0.9 0.00 0.09 0.02 74 1020.4
20240722194005 68 225 0.0 0.9 0.00 0.09 0.02 67 1020.2
20240722191005 71 45 0.0 0.9 0.00 0.09 0.02 53 1019.9
20240722181005 74 45 0.0 0.9 0.00 0.09 0.02 50 1019.4
20240722173006 75 65 0.0 2.6 0.00 0.09 0.02 48 1019.0
20240722171007 75 266 0.0 1.7 0.00 0.09 0.02 46 1019.0
20240722170007 75 26 0.9 2.6 0.00 0.09 0.02 46 1018.8
20240722164007 76 105 0.0 2.6 0.00 0.09 0.02 44 1018.7
20240722163005 77 192 1.7 5.2 0.00 0.09 0.02 44 1018.9
20240722161005 77 210 0.9 2.6 0.00 0.09 0.02 45 1018.8
20240722154005 78 0 0.9 4.3 0.00 0.09 0.02 40 1018.8
20240722144005 81 247 0.0 4.3 0.00 0.11 0.02 38 1018.7
20240722143005 81 39 0.0 4.3 0.00 0.11 0.02 36 1018.5
20240722141005 82 182 0.0 1.7 0.00 0.11 0.02 38 1018.6
20240722133004 81 45 0.9 5.2 0.00 0.11 0.02 40 1018.7
20240722131005 80 45 0.9 5.2 0.00 0.11 0.02 40 1018.6
20240722130004 78 292 0.9 4.3 0.00 0.11 0.02 41 1018.6
20240722124006 80 45 0.9 2.6 0.00 0.21 0.02 43 1018.6
20240722113004 78 0 0.0 5.2 0.00 0.22 0.02 50 1018.3
20240722111004 77 212 0.0 1.7 0.00 0.22 0.02 55 1018.2
20240722104008 76 135 0.9 4.3 0.00 0.22 0.02 56 1018.2
20240722103006 76 14 0.9 7.0 0.00 0.22 0.02 60 1018.2
20240722101008 76 12 0.0 0.9 0.00 0.22 0.02 64 1018.2
20240722084004 69 296 1.7 4.3 0.00 0.22 0.02 81 1017.6
20240722081005 69 225 0.0 0.0 0.00 0.22 0.02 87 1017.4
20240722080004 69 225 0.0 0.9 0.00 0.22 0.02 88 1017.5
20240722074004 68 225 0.0 0.0 0.00 0.22 0.02 91 1017.4
20240722073005 67 225 0.0 0.9 0.00 0.22 0.02 93 1017.5
20240722071005 67 225 0.0 0.9 0.00 0.22 0.02 95 1017.4
20240722064004 66 135 0.0 0.0 0.00 0.22 0.02 96 1017.0
20240722063005 66 135 0.0 0.0 0.00 0.22 0.02 97 1017.0
20240722061008 65 135 0.0 0.0 0.00 0.22 0.02 97 1016.9
20240722060005 65 135 0.0 0.0 0.00 0.22 0.02 97 1016.8
20240722054005 65 135 0.0 0.0 0.00 0.22 0.02 97 1016.6